�N����,����,�~����,�C��,���x,�C��,����,���ϕ���,�ő�u�ԕ���,�ő厞����,���˗�,�I�_���x,�n�����x,�ő啗���N��,DTYPE
"20/06/25","00:10",0.0,24.4,75.4,1002.6,106.2,1.6,3.2,108.5,0.00,19.8,24.2,"00:04:08",1
"20/06/25","00:20",0.0,24.4,75.6,1002.4,101.2,1.7,3.2,109.8,0.00,19.9,24.1,"00:12:24",1
"20/06/25","00:30",0.0,24.4,75.9,1002.4,101.6,1.6,4.1,112.9,0.00,19.9,24.2,"00:24:24",1
"20/06/25","00:40",0.0,24.3,76.3,1002.2,77.4,1.0,2.9,113.6,0.00,19.9,24.2,"00:30:08",1
"20/06/25","00:50",0.0,24.4,76.6,1002.4,104.3,1.3,2.7,113.6,0.00,20.1,24.2,"00:41:04",1
"20/06/25","01:00",0.0,24.3,76.7,1002.2,98.3,1.2,3.1,102.7,0.00,20.0,24.0,"00:57:44",1
"20/06/25","01:10",0.0,24.3,76.9,1001.9,107.6,1.5,3.2,127.9,0.00,20.0,24.1,"01:05:44",1
"20/06/25","01:20",0.0,24.3,77.1,1002.4,92.8,1.3,3.3,105.3,0.00,20.1,24.2,"01:12:56",1
"20/06/25","01:30",0.0,24.2,77.6,1001.7,77.9,0.7,1.9,119.5,0.00,20.1,24.0,"01:23:20",1
"20/06/25","01:40",0.0,24.1,78.2,1001.7,65.1,0.7,1.7,44.4,0.00,20.1,24.2,"01:34:24",1
"20/06/25","01:50",0.0,23.9,79.0,1001.5,63.4,0.6,1.6,109.0,0.00,20.1,24.0,"01:43:52",1
"20/06/25","02:00",0.0,23.7,79.8,1001.5,346.7,0.6,1.6,343.7,0.00,20.0,23.9,"01:57:36",1
"20/06/25","02:10",0.0,23.6,80.6,1001.2,334.8,0.6,1.6,335.6,0.00,20.1,24.0,"02:04:32",1
"20/06/25","02:20",0.0,23.5,81.5,1001.2,13.6,0.6,1.7,324.6,0.00,20.2,23.9,"02:19:28",1
"20/06/25","02:30",0.0,23.4,82.2,1001.0,332.3,1.3,1.7,333.7,0.00,20.2,23.9,"02:22:40",1
"20/06/25","02:40",0.0,23.3,82.9,1000.8,335.9,1.0,2.1,326.0,0.00,20.3,23.9,"02:37:04",1
"20/06/25","02:50",0.0,23.2,83.6,1001.0,328.0,1.2,2.1,336.1,0.00,20.3,23.9,"02:42:56",1
"20/06/25","03:00",0.0,23.0,84.1,1000.5,320.9,0.6,1.4,350.7,0.00,20.2,24.0,"02:50:56",1
"20/06/25","03:10",0.0,23.0,84.5,1001.0,327.8,0.6,1.4,333.1,0.00,20.3,23.8,"03:06:40",1
"20/06/25","03:20",0.0,23.0,84.7,1001.0,313.6,1.1,1.8,324.4,0.00,20.3,23.8,"03:15:12",1
"20/06/25","03:30",0.0,23.2,84.8,1000.8,39.2,0.6,1.3,29.3,0.00,20.5,23.8,"03:28:48",1
"20/06/25","03:40",0.0,23.4,84.3,1001.5,95.7,0.6,1.4,106.4,0.00,20.6,23.8,"03:32:08",1
"20/06/25","03:50",0.0,23.5,83.8,1001.2,351.0,0.5,1.4,98.2,0.00,20.6,23.5,"03:40:24",1
"20/06/25","04:00",0.0,23.6,83.3,1001.5,75.1,0.7,2.0,105.8,0.00,20.6,23.7,"03:54:32",1
"20/06/25","04:10",0.0,23.7,82.8,1001.2,121.4,0.6,2.4,118.3,0.00,20.6,23.6,"04:08:40",1
"20/06/25","04:20",0.0,23.7,82.5,1001.5,130.2,0.6,1.8,122.6,0.00,20.6,23.6,"04:19:20",1
"20/06/25","04:30",0.0,23.7,82.3,1001.5,103.2,0.5,1.3,93.6,0.00,20.5,23.8,"04:24:24",1
"20/06/25","04:40",0.0,23.7,82.2,1001.2,75.9,0.6,1.6,115.5,0.00,20.5,23.7,"04:35:04",1
"20/06/25","04:50",0.0,23.8,82.2,1001.2,340.4,0.6,1.3,340.6,0.00,20.6,23.8,"04:41:52",1
"20/06/25","05:00",0.0,23.8,82.2,1001.2,329.1,0.6,1.3,343.2,0.00,20.6,23.5,"04:55:12",1
"20/06/25","05:10",0.0,23.7,82.5,1001.5,330.8,1.0,1.4,326.8,0.00,20.6,23.7,"05:00:32",1
"20/06/25","05:20",0.0,23.8,82.9,1001.5,334.2,1.1,1.8,338.2,0.00,20.8,23.6,"05:17:36",1
"20/06/25","05:30",0.0,23.7,83.3,1001.9,329.5,1.1,1.9,340.5,0.00,20.7,23.7,"05:21:20",1
"20/06/25","05:40",0.0,23.7,83.7,1001.5,326.8,0.8,1.3,339.2,0.00,20.8,23.7,"05:32:56",1
"20/06/25","05:50",0.0,23.7,83.9,1001.2,311.8,0.7,1.3,316.0,0.01,20.9,23.7,"05:49:28",1
"20/06/25","06:00",0.0,23.8,84.1,1001.7,317.5,1.1,1.7,336.9,0.01,21.0,23.7,"05:56:24",1
"20/06/25","06:10",0.0,23.9,84.3,1001.9,319.4,1.1,1.6,337.9,0.02,21.1,23.5,"06:00:48",1
"20/06/25","06:20",0.0,24.1,84.3,1001.7,296.4,0.6,1.0,308.5,0.02,21.3,23.8,"06:10:24",1
"20/06/25","06:30",0.0,24.2,84.3,1001.2,312.0,0.8,1.2,324.7,0.02,21.4,23.7,"06:26:00",1
"20/06/25","06:40",0.0,24.5,84.1,1001.5,301.0,0.7,1.4,327.3,0.03,21.7,23.6,"06:30:56",1
"20/06/25","06:50",0.0,24.5,83.6,1001.5,15.7,0.6,1.0,302.9,0.05,21.6,23.8,"06:40:08",1
"20/06/25","07:00",0.0,24.9,83.1,1001.7,342.9,0.7,1.8,340.7,0.07,21.9,23.8,"06:53:52",1
"20/06/25","07:10",0.0,25.0,81.9,1001.7,344.3,1.0,1.8,342.5,0.09,21.7,23.9,"07:07:52",1
"20/06/25","07:20",0.0,25.5,80.6,1001.5,325.1,0.8,1.7,335.8,0.11,22.0,24.0,"07:13:20",1
"20/06/25","07:30",0.0,25.6,78.9,1001.2,68.1,0.8,2.0,105.3,0.11,21.7,24.4,"07:27:12",1
"20/06/25","07:40",0.0,25.9,78.0,1001.0,326.3,0.5,1.4,260.1,0.11,21.8,24.2,"07:39:20",1
"20/06/25","07:50",0.0,26.2,76.9,1001.5,200.7,0.6,1.8,236.5,0.14,21.9,24.4,"07:40:48",1
"20/06/25","08:00",0.0,25.9,76.6,1001.5,144.0,1.1,2.6,140.9,0.09,21.5,24.6,"07:54:48",1
"20/06/25","08:10",0.0,25.9,76.6,1001.2,191.0,0.8,2.0,218.6,0.09,21.5,24.7,"08:03:52",1
"20/06/25","08:20",0.0,26.1,76.6,1001.5,186.4,0.6,1.9,221.8,0.12,21.7,24.8,"08:13:12",1
"20/06/25","08:30",0.0,26.1,76.4,1000.8,187.1,1.2,3.5,232.1,0.11,21.7,24.7,"08:25:28",1
"20/06/25","08:40",0.0,26.3,76.5,1000.8,176.5,1.0,3.7,207.4,0.14,21.9,24.8,"08:32:08",1
"20/06/25","08:50",0.0,25.9,76.0,1001.2,228.7,1.7,3.3,229.6,0.10,21.4,24.9,"08:44:48",1
"20/06/25","09:00",0.0,26.0,76.4,1001.2,223.8,1.7,2.7,229.5,0.14,21.6,25.1,"08:54:32",1
"20/06/25","09:10",0.0,26.1,76.1,1001.2,197.4,1.5,2.7,234.1,0.14,21.6,25.0,"09:03:04",1
"20/06/25","09:20",0.0,26.2,76.0,1001.2,210.9,2.2,3.9,203.2,0.16,21.7,25.1,"09:17:52",1
"20/06/25","09:30",0.0,26.4,75.5,1001.2,213.0,1.7,4.8,217.8,0.19,21.8,25.3,"09:29:44",1
"20/06/25","09:40",0.0,26.3,75.9,1001.5,201.2,1.5,3.3,229.7,0.13,21.7,25.2,"09:32:40",1
"20/06/25","09:50",0.0,26.3,76.1,1001.2,195.4,2.1,4.0,201.4,0.21,21.8,25.2,"09:44:16",1
"20/06/25","10:00",0.0,26.3,76.1,1001.0,174.8,1.8,4.4,197.9,0.18,21.8,25.2,"09:51:04",1
"20/06/25","10:10",0.0,26.8,75.6,1000.8,195.8,1.5,2.9,193.9,0.24,22.2,25.6,"10:01:20",1
"20/06/25","10:20",0.0,26.6,75.0,1000.8,198.1,1.3,3.2,220.3,0.18,21.8,25.6,"10:13:28",1
"20/06/25","10:30",0.0,26.5,75.3,1001.0,192.4,1.2,2.4,193.1,0.09,21.8,25.4,"10:26:32",1
"20/06/25","10:40",0.0,26.0,76.3,1000.8,241.3,1.5,3.4,219.4,0.05,21.5,25.4,"10:36:16",1
"20/06/25","10:50",0.0,25.7,78.1,1001.2,183.7,1.8,3.3,193.4,0.03,21.6,25.6,"10:45:12",1
"20/06/25","11:00",0.0,25.5,79.3,1001.2,192.8,1.5,3.2,219.3,0.04,21.7,25.4,"10:56:48",1
"20/06/25","11:10",0.0,25.8,80.4,1001.2,175.5,1.8,4.0,217.2,0.14,22.2,25.4,"11:03:20",1
"20/06/25","11:20",0.0,26.0,79.4,1001.2,265.1,1.1,2.4,207.2,0.13,22.2,25.4,"11:10:16",1
"20/06/25","11:30",0.0,26.1,78.7,1001.2,354.6,1.0,2.7,334.3,0.10,22.1,25.4,"11:22:16",1
"20/06/25","11:40",0.0,25.9,78.2,1001.0,333.5,0.7,1.6,319.0,0.02,21.9,25.3,"11:35:44",1
"20/06/25","11:50",0.0,25.8,78.5,1000.8,15.9,0.3,1.0,344.6,0.05,21.8,25.4,"11:48:50",1
"20/06/25","12:00",0.0,25.4,79.9,1001.2,351.8,0.6,1.3,346.8,0.03,21.7,25.5,"11:52:56",1
"20/06/25","12:10",0.0,25.4,81.9,1001.2,4.9,0.7,1.2,18.5,0.06,22.1,25.5,"12:07:04",1
"20/06/25","12:20",0.0,25.2,83.6,1001.0,354.1,0.7,1.7,357.2,0.06,22.3,25.4,"12:11:36",1
"20/06/25","12:30",0.0,24.8,84.7,1001.0,351.2,0.6,1.3,346.5,0.06,22.1,25.4,"12:22:48",1
"20/06/25","12:40",0.0,24.9,85.5,1001.2,352.7,0.2,1.2,342.1,0.08,22.3,25.4,"12:33:36",1
"20/06/25","12:50",0.0,25.1,86.1,1001.5,358.9,0.7,1.7,343.0,0.11,22.7,25.4,"12:47:28",1
"20/06/25","13:00",0.0,25.1,86.5,1001.2,343.0,1.0,2.2,355.3,0.10,22.7,25.4,"12:57:28",1
"20/06/25","13:10",0.0,25.3,86.8,1001.2,9.9,0.6,1.6,2.7,0.10,23.0,25.5,"13:05:20",1
"20/06/25","13:20",0.0,25.5,87.1,1001.0,254.6,0.8,1.7,251.9,0.11,23.2,25.4,"13:15:36",1
"20/06/25","13:30",0.0,25.6,87.1,1001.0,49.8,0.6,1.9,120.7,0.14,23.3,25.7,"13:22:24",1
"20/06/25","13:40",0.0,25.3,86.9,1001.2,12.5,0.7,1.6,339.3,0.07,23.0,25.6,"13:38:40",1
"20/06/25","13:50",0.0,24.9,85.9,1001.2,286.2,1.2,2.5,208.8,0.05,22.4,25.6,"13:49:04",1
"20/06/25","14:00",0.0,24.9,85.8,1001.2,271.1,1.3,3.4,236.5,0.06,22.4,25.5,"13:52:48",1
"20/06/25","14:10",0.0,25.3,85.2,1001.2,293.2,1.0,2.5,313.3,0.13,22.7,25.4,"14:01:04",1
"20/06/25","14:20",0.0,25.6,83.6,1001.2,240.2,1.0,2.0,227.0,0.12,22.7,25.6,"14:12:32",1
"20/06/25","14:30",0.0,25.8,82.5,1000.8,273.0,1.0,1.9,319.8,0.14,22.6,25.7,"14:24:32",1
"20/06/25","14:40",0.0,26.3,81.4,1000.5,260.9,0.6,1.6,251.8,0.18,22.9,25.6,"14:36:24",1
"20/06/25","14:50",0.0,26.4,79.7,1000.8,319.0,0.8,1.8,336.6,0.16,22.6,25.7,"14:43:52",1
"20/06/25","15:00",0.0,26.7,78.6,1000.5,242.5,0.6,1.4,233.1,0.15,22.7,25.6,"14:57:28",1
"20/06/25","15:10",0.0,26.5,78.0,1000.3,341.1,1.1,2.5,350.6,0.13,22.4,25.8,"15:06:48",1
"20/06/25","15:20",0.0,26.5,77.8,1000.3,359.4,1.0,1.9,334.9,0.12,22.3,25.8,"15:11:04",1
"20/06/25","15:30",0.0,26.4,77.3,1000.5,0.5,0.8,2.1,4.1,0.11,22.1,26.0,"15:22:48",1
"20/06/25","15:40",0.0,26.6,76.7,1000.0,4.9,0.6,1.3,24.7,0.12,22.2,25.7,"15:34:40",1
"20/06/25","15:50",0.0,26.8,76.4,999.8,351.1,0.7,2.0,321.1,0.12,22.3,25.6,"15:49:44",1
"20/06/25","16:00",0.0,26.7,76.2,999.8,331.3,1.3,2.2,339.9,0.12,22.2,25.7,"15:53:12",1
"20/06/25","16:10",0.0,26.7,75.9,1000.0,304.2,1.0,2.2,342.1,0.09,22.1,25.7,"16:00:56",1
"20/06/25","16:20",0.0,26.8,75.7,999.6,339.7,0.6,1.1,336.7,0.08,22.2,25.8,"16:16:32",1
"20/06/25","16:30",0.0,26.8,75.5,998.9,354.0,0.5,1.4,342.4,0.07,22.1,25.9,"16:22:08",1
"20/06/25","16:40",0.0,26.7,76.1,999.6,191.5,0.8,2.1,199.1,0.07,22.2,26.0,"16:39:20",1
"20/06/25","16:50",0.0,26.5,77.0,999.6,164.2,1.0,2.2,223.2,0.07,22.2,25.9,"16:41:44",1
"20/06/25","17:00",0.0,26.6,77.0,1000.0,224.5,0.3,1.4,216.9,0.08,22.3,25.7,"16:52:40",1
"20/06/25","17:10",0.0,26.7,77.0,999.8,232.3,1.1,3.1,225.0,0.08,22.4,25.8,"17:03:20",1
"20/06/25","17:20",0.0,26.7,76.8,999.8,242.9,1.1,2.1,233.2,0.06,22.3,25.7,"17:12:24",1
"20/06/25","17:30",0.0,26.6,77.2,1000.3,242.5,1.0,2.4,225.3,0.03,22.3,25.8,"17:23:04",1
"20/06/25","17:40",0.0,26.5,77.5,1000.5,259.5,0.6,1.6,298.6,0.03,22.3,25.6,"17:32:24",1
"20/06/25","17:50",0.0,26.5,77.8,1000.0,250.5,0.8,2.0,236.4,0.02,22.3,25.7,"17:41:20",1
"20/06/25","18:00",0.0,26.3,78.2,1000.5,281.1,0.6,1.0,320.5,0.01,22.2,25.6,"17:57:28",1
"20/06/25","18:10",0.0,26.3,79.0,1000.5,310.4,1.2,2.5,342.7,0.00,22.4,25.7,"18:08:08",1
"20/06/25","18:20",0.0,26.0,80.4,1000.5,323.3,0.8,1.8,331.2,0.00,22.4,25.5,"18:10:48",1
"20/06/25","18:30",0.0,25.8,81.5,1000.8,300.9,0.8,1.8,337.3,0.00,22.4,25.3,"18:29:28",1
"20/06/25","18:40",0.0,25.6,82.4,1000.8,342.1,1.0,1.6,355.7,0.00,22.4,25.2,"18:35:36",1
"20/06/25","18:50",0.0,25.2,83.2,1000.8,331.9,0.5,1.6,353.0,0.00,22.2,25.3,"18:40:16",1
"20/06/25","19:00",0.0,25.2,84.0,1000.8,313.9,1.0,1.4,322.2,0.00,22.3,25.3,"18:53:52",1
"20/06/25","19:10",0.0,25.0,84.6,1000.8,304.5,0.8,1.8,333.9,0.00,22.3,25.4,"19:02:24",1
"20/06/25","19:20",0.0,24.9,85.1,1001.2,307.2,1.1,1.8,335.4,0.00,22.3,25.2,"19:12:24",1
"20/06/25","19:30",0.0,24.7,85.6,1001.0,284.8,0.7,1.4,259.5,0.00,22.2,25.2,"19:24:00",1
"20/06/25","19:40",0.0,24.7,86.0,1001.2,313.6,0.8,1.7,339.4,0.00,22.2,25.0,"19:38:40",1
"20/06/25","19:50",0.0,24.6,86.3,1001.0,304.5,0.5,1.2,261.5,0.00,22.2,24.8,"19:45:36",1
"20/06/25","20:00",0.0,24.4,86.9,1001.0,322.8,1.2,1.9,343.3,0.00,22.1,24.9,"19:57:20",1
"20/06/25","20:10",0.0,24.3,87.4,1001.2,311.0,1.1,1.9,324.5,0.00,22.1,25.0,"20:07:36",1
"20/06/25","20:20",0.0,24.2,87.7,1001.0,288.2,0.6,1.0,258.8,0.00,22.1,24.9,"20:15:12",1
"20/06/25","20:30",0.0,24.2,88.1,1001.2,277.3,1.1,1.7,339.0,0.00,22.1,24.7,"20:28:48",1
"20/06/25","20:40",0.0,24.1,88.4,1001.5,295.6,1.0,2.5,341.5,0.00,22.1,24.3,"20:30:48",1
"20/06/25","20:50",0.0,24.1,88.6,1001.2,285.9,1.0,2.0,309.4,0.00,22.1,24.7,"20:43:52",1
"20/06/25","21:00",0.0,24.0,88.8,1001.5,254.6,0.5,1.2,242.8,0.00,22.1,24.7,"20:54:24",1
"20/06/25","21:10",0.0,24.1,89.0,1001.2,308.0,1.1,2.2,341.0,0.00,22.2,24.7,"21:08:24",1
"20/06/25","21:20",0.0,24.2,89.1,1001.7,335.9,1.2,1.8,319.7,0.00,22.3,24.6,"21:10:48",1
"20/06/25","21:30",0.0,24.0,89.3,1001.5,282.6,0.6,1.3,340.0,0.00,22.2,24.6,"21:20:24",1
"20/06/25","21:40",0.0,23.9,89.5,1001.5,276.9,0.8,1.8,337.4,0.00,22.1,24.4,"21:38:08",1
"20/06/25","21:50",0.0,23.9,89.6,1001.7,292.7,0.7,1.1,335.9,0.00,22.1,24.7,"21:49:44",1
"20/06/25","22:00",0.0,24.0,89.7,1001.7,318.1,0.6,1.0,328.6,0.00,22.2,24.6,"21:52:24",1
"20/06/25","22:10",0.0,24.1,89.8,1001.7,309.4,0.8,1.8,338.4,0.00,22.4,24.5,"22:07:04",1
"20/06/25","22:20",0.0,24.1,89.9,1001.5,312.9,0.8,1.6,339.2,0.00,22.4,24.3,"22:16:32",1
"20/06/25","22:30",0.0,23.9,90.0,1001.7,286.1,1.0,1.4,244.6,0.00,22.2,24.3,"22:23:04",1
"20/06/25","22:40",0.0,23.9,90.1,1001.7,297.5,0.7,1.9,334.2,0.00,22.2,24.4,"22:38:48",1
"20/06/25","22:50",0.0,23.9,90.2,1001.2,296.7,0.8,1.7,270.0,0.00,22.2,24.5,"22:45:04",1
"20/06/25","23:00",0.0,23.9,90.3,1001.5,294.8,0.8,1.3,322.9,0.00,22.3,24.4,"22:56:00",1
"20/06/25","23:10",0.0,23.9,90.3,1001.0,299.5,0.8,1.3,335.0,0.00,22.3,24.4,"23:05:28",1
"20/06/25","23:20",0.0,24.0,90.3,1001.5,326.8,0.8,1.4,336.6,0.00,22.4,24.3,"23:12:24",1
"20/06/25","23:30",0.0,23.9,90.4,1001.7,287.2,0.7,1.2,277.7,0.00,22.3,24.3,"23:26:08",1
"20/06/25","23:40",0.0,23.9,90.5,1001.5,295.0,0.8,1.6,338.6,0.00,22.3,24.2,"23:30:02",1
"20/06/25","23:50",0.0,23.9,90.5,1001.5,303.4,1.0,1.4,316.3,0.00,22.3,24.3,"23:43:44",1
"20/06/25","24:00",0.0,24.0,90.5,1001.0,333.3,0.8,1.7,344.1,0.00,22.4,24.2,"23:55:52",1
